Regional Weather Roundup
Issued by NWS Upton, NY

Current Version | Previous Version | Graphics & Text | Print | Product List | Glossary Off
Versions: 1 2 3 4 5 6 7 8 9 10 11 12 13 14 15 16 17 18 19 20 21 22 23 24 25 26 27 28 29 30 31 32 33 34 35 36 37 38 39 40 41 42 43 44 45 46 47 48 49 50
000 ASUS41 KOKX 180805 RWROKX REGIONAL WEATHER ROUNDUP NATIONAL WEATHER SERVICE NEW YORK NY 400 AM EDT THU SEP 18 2014 NOTE: "FAIR" INDICATES FEW OR NO CLOUDS BELOW 12,000 FEET WITH NO SIGNIFICANT WEATHER AND/OR OBSTRUCTIONS TO VISIBILITY. NYZ071-072-176-178-NJZ106-104-180900- NEW YORK CITY METRO AREA CITY SKY/WX TMP DP RH WIND PRES REMARKS CENTRAL PARK CLEAR 62 51 67 VRB3 29.99S LAGUARDIA APRT CLEAR 62 52 69 SW5 29.95S KENNEDY INTL CLEAR 59 52 77 SW7 29.97S NEWARK/LIBERTY CLEAR 57 51 80 CALM 29.96S BRNX BOT. GARD N/A 59 52 77 N3 29.99R TETERBORO CLEAR 54 48 80 N3 29.96R $$ NYZ177-179-078>081-180900- LONG ISLAND NEW YORK CITY SKY/WX TMP DP RH WIND PRES REMARKS FARMINGDALE CLEAR 53 49 86 CALM 29.96S ISLIP CLEAR 53 49 86 CALM 29.94S SHIRLEY CLEAR 50 47 89 CALM 29.96S WESTHAMPTON CLEAR 43 39 86 CALM 29.97R MONTAUK POINT N/A 54 50 86 CALM 29.96S $$ NYZ052-065-067-180900- HUDSON VALLEY CITY SKY/WX TMP DP RH WIND PRES REMARKS WHITE PLAINS CLEAR 51 48 89 NW6 29.96R NEWBURGH CLEAR 46 46 100 CALM 29.98S MONTGOMERY MOCLDY 42 40 92 CALM 29.97S FOG POUGHKEEPSIE CLEAR 45 43 93 CALM 29.97S ALBANY PTCLDY 49 45 86 S6 29.97S $$ NJZ001-105-106-008-010-013-015-019>022-104-180900- NEW JERSEY CITY SKY/WX TMP DP RH WIND PRES REMARKS NEWARK/LIBERTY CLEAR 57 51 80 CALM 29.96S TETERBORO CLEAR 54 48 80 N3 29.96R CALDWELL CLEAR 48 45 89 CALM 29.98R MORRISTOWN FOG 45 41 87 CALM 29.98R VSB 1/2 SOMERVILLE CLEAR 46 43 89 CALM 29.96R LINDEN FAIR 58 54 86 CALM 29.98S SUSSEX CLEAR 44 41 89 CALM 29.98S ANDOVER N/A 44 42 93 CALM 29.98S TRENTON CLEAR 50 46 86 CALM 29.97R MILLVILLE CLEAR 50 48 93 CALM 29.97S ATLANTIC CITY CLEAR 50 48 93 NW3 29.96F WRIGHTSTOWN CLEAR 49 49 98 CALM 29.95S TOMS RIVER CLEAR 45 43 93 CALM 29.97S BELMAR CLEAR 52 46 82 NW3 29.96S $$ PAZ047>061-062-071-180900- EASTERN PENNSYLVANIA CITY SKY/WX TMP DP RH WIND PRES REMARKS PHILADELPHIA CLEAR 58 52 80 N3 29.97S ALLENTOWN CLEAR 47 44 90 CALM 29.98R SCRANTON CLEAR 45 42 89 E6 29.98S $$ CTZ002-004>006-009-010-012-RIZ004-006-007-MAZ004-011-015-180900- SOUTHERN NEW ENGLAND IN CT CITY SKY/WX TMP DP RH WIND PRES REMARKS BRADLEY INTL CLEAR 46 43 89 W3 29.96R HARTFORD CLEAR 48 45 89 CALM 29.96S DANBURY CLEAR 44 42 93 CALM 29.98S WTRBRY/OXFORD MOCLDY 46 43 87 CALM 29.98S BRIDGEPORT CLEAR 53 49 86 CALM 29.96S MERIDEN CLOUDY 46 44 93 CALM 29.97R NEW HAVEN MOCLDY 49 45 86 CALM 29.96S CHESTER FAIR 54 48 82 CALM 29.96S GROTON CLEAR 48 47 96 N3 29.95S WILLIMANTIC MOCLDY 44 42 93 CALM 29.97S IN RI CITY SKY/WX TMP DP RH WIND PRES REMARKS PROVIDENCE CLEAR 50 46 86 W5 29.96R BLOCK ISLAND CLEAR 55 52 88 NW5 29.95R WESTERLY CLEAR 46 44 93 CALM 29.96S IN MA CITY SKY/WX TMP DP RH WIND PRES REMARKS BOSTON CLEAR 56 47 71 W7 29.93F WORCESTER CLEAR 51 43 74 W8 29.95F WESTFIELD FOG 43 42 97 CALM 29.96S VSB 1/2 PROVINCETOWN CLEAR 57 52 82 W8 29.93S NANTUCKET CLEAR 51 48 89 CALM 29.93S $$ ANZ330-335-338-340-345-350-353-355-180900- COASTAL MARINE OBSERVATIONS STATION/POSITION TIME SKY/WX TEMP WIND PRES VSBY WAVE AIR SEA DIR/SP/G HT/PER (UTC) (F) (DEG/KT/KT) (MB) (MI) (FT/S) NY HARB ENTRANCE 0800 66 70 250/ 10/ 12 1014.8 3/14 4S FIRE IS 0800 70 N/A 4/13 23SW MTP 0800 N/A 4/14 HUDSON CANYON 0800 67 73 30/ 8/ 10 1013.8 5/13 EXECUTION ROCKS 0800 64 71 320/ 8/ 12 N/A WESTERN LI SOUND 0800 62 330/ 8/ 10 N/A 0 CENTRAL LI SOUND 0700 63 71 330/ 8/ 8 N/A 1/ 3 EASTERN LI SOUND 0700 60 68 10/ 6/ 8 N/A ROBBINS REEF 0800 61 250/ 7/ 9 1013.2 $$ >>>>>>>>>>>>>>>>>>>>>>>>>>>> KEY <<<<<<<<<<<<<<<<<<<<<<<<<<< > < > SKY/WX - SKY CONDITION/PRESENT WEATHER < > TMP - TEMPERATURE IN FAHRENHEIT < > DP - DEWPOINT IN FAHRENHEIT < > RH - RELATIVE HUMIDITY IN PERCENT < > WIND - DIRECTION AND SPEED IN MPH < > PRES - MEAN SEA LEVEL PRESSURE IN INCHES OF HG < > WCI - WIND CHILL INDEX < > VSB - VISIBILITY IN MILES < > HX - HEAT INDEX < > TC - TEMPERATURE IN CELSIUS < > VRB - VARIABLE WIND DIRECTION < > < >>>>>>>>>>>>>>>>>>>>>>>>>>>> KEY <<<<<<<<<<<<<<<<<<<<<<<<<<<

USA.gov is the U.S. government's official web portal to all federal, state and local government web resources and services.